Location: Unspecified
(50.0000°N, 15.0000°E)
Time: 07:14:12
(UTC+01:00)

Envisat - Visible Passes

Search period start: 27 November 2021 00:00
Search period end: 07 December 2021 00:00
Orbit: 764 x 766 km, 98.2° (Epoch: 26 November)

Date Brightness Start Highest point End Pass type
(mag) Time Alt. Az. Time Alt. Az. Time Alt. Az.
27 Nov 4.9 04:13:56 10° NE 04:18:16 28° E 04:22:35 10° SSE visible
27 Nov 3.2 05:52:38 10° N 05:57:30 47° WNW 06:02:21 10° SW visible
27 Nov 5.6 17:12:58 10° SW 17:16:59 23° W 17:21:01 10° NW visible
28 Nov 5.9 03:38:23 10° NE 03:40:58 14° E 03:43:32 10° ESE visible
28 Nov 2.9 05:15:37 10° NNE 05:20:44 88° ESE 05:25:50 10° SSW visible
28 Nov 4.4 06:55:53 10° NNW 06:59:05 17° NW 07:02:18 10° W visible
28 Nov 4.3 16:34:57 10° S 16:39:49 46° W 16:44:43 10° NNW visible
29 Nov 4.1 04:38:54 10° NNE 04:43:47 44° E 04:48:37 10° S visible
29 Nov 3.7 06:18:14 10° N 06:22:38 31° WNW 06:27:02 10° WSW visible
29 Nov 6.0 17:39:55 10° WSW 17:42:37 14° W 17:45:20 10° NW visible
30 Nov 5.3 04:02:38 10° NE 04:06:37 22° E 04:10:33 10° SE visible
30 Nov 3.0 05:41:00 10° N 05:46:00 58° WNW 05:50:59 10° SSW visible
30 Nov 5.2 17:00:58 10° SSW 17:05:19 28° W 17:09:42 10° NW visible
01 Dec 6.1 03:27:56 10° ENE 03:29:14 11° E 03:30:31 10° E visible
01 Dec 3.2 05:04:04 10° NNE 05:09:11 72° ESE 05:14:15 10° S visible
01 Dec 4.2 06:44:01 10° NNW 06:47:41 20° WNW 06:51:20 10° WSW visible
02 Dec 4.5 04:27:28 10° NNE 04:32:09 36° E 04:36:48 10° SSE visible
02 Dec 3.5 06:06:31 10° N 06:11:11 37° WNW 06:15:48 10° SW visible
02 Dec 5.9 17:27:31 10° SW 17:30:54 18° W 17:34:19 10° NW visible
03 Dec 5.5 03:51:26 10° NE 03:54:56 18° E 03:58:23 10° SE visible
03 Dec 2.9 05:29:24 10° N 05:34:29 71° WNW 05:39:32 10° SSW visible
03 Dec 4.9 16:49:03 10° SSW 16:53:40 35° W 16:58:19 10° NNW visible
04 Dec 3.5 04:52:33 10° NNE 04:57:36 58° E 05:02:35 10° S visible
04 Dec 4.0 06:32:14 10° N 06:36:15 24° WNW 06:40:16 10° WSW visible
04 Dec 6.4 17:55:39 10° W 17:56:36 10° W 17:57:33 10° WNW visible
05 Dec 4.8 04:16:04 10° NNE 04:20:30 29° E 04:24:54 10° SSE visible
05 Dec 3.2 05:54:52 10° N 05:59:41 45° WNW 06:04:30 10° SW visible
05 Dec 5.7 17:15:20 10° SW 17:19:13 22° W 17:23:07 10° NW visible
06 Dec 5.8 03:40:23 10° NE 03:43:13 15° E 03:46:02 10° ESE visible
06 Dec 2.9 05:17:49 10° NNE 05:22:56 87° WNW 05:28:01 10° SSW visible
06 Dec 4.4 06:58:11 10° NNW 07:01:15 16° NW 07:04:18 10° W visible
06 Dec 4.4 16:37:13 10° S 16:42:02 43° W 16:46:53 10° NNW visible
